Tracking 23583 objects as of 26-Jul-2021
HD Live streaming from Space Station
objects crossing your sky now

OV3-3

Track OV3-3 now!
10-day predictions
OV3-3 is classified as:


NORAD ID: 2389
Int'l Code: 1966-070A
Perigee: 347.5 km
Apogee: 2,219.9 km
Inclination: 81.4 °
Period: 111.1 minutes
Semi major axis: 7654 km
RCS: 0.7052 m2 (medium)
Launch date: August 4, 1966
Source: United States (US)
Launch site: AIR FORCE WESTERN TEST RANGE (AFWTR)
aabbcc
Your satellite tracking list
Your tracking list is empty




NASA's NSSDC Master Catalog

Two Line Element Set (TLE):
1 02389U 66070A   21206.90383836  .00001417  00000-0  78640-4 0  9994
2 02389  81.3859  36.1692 1223022 280.6932  65.9063 12.96323113363661
Source of the keplerian elements: AFSPC